一网星座-0553星 (ONEWEB-0553)

导读 | 豆包AI

ONEWEB-0553是英国OneWeb第二代低轨互联网星座中的卫星,于2023年3月26日发射入轨,归属OneWeb全球卫星互联网组网计划。作为第二代卫星,它支持定位、导航与授时功能,可依托近地轨道星座架构,为全球用户提供宽带互联网接入服务,助力OneWeb实现全球覆盖的通信网络部署,后续和其他组网卫星共同服务全球无缝互联需求。

基本信息
目录编号:
56055
目录名称:
ONEWEB-0553
国际标识:
2023-043K
轨道中心:
EARTH
卫星名称:
一网星座-0553星
卫星全名:
一网星座-0553星 (ONEWEB-0553)
卫星状态:
在轨 (已飞行1105 天)
发射日期:
2023-03-26 UTC
国别 :
英国 (GB)
星等 :
--
轨道信息
数据来源 国际轨道数据 AOE轨道数据
星历时间 2026-04-04T04:33:56+0800
5小时前
查看轨道信息
2026-04-02T16:00:00+0800
1天前
查看轨道信息
半长轴 7575.889km 7575.899km
偏心率 0.0001304 0.0001806
轨道倾角 87.904° 87.904°
近地点辐角 104.467° 102.656°
升交点赤经 243.546° 243.852°
平近点角 255.661° 240.273°
近地点 1196.764km 1196.393km
远地点 1198.74km 1199.131km
周期 109.373分钟 109.373分钟
每日圈数 13.165957 13.16593
详细信息
平衡模式:
三轴稳定
覆盖范围:
全球
运营商:
一网卫星公司
运营商所在国:
英国
制造商(研发单位):
一网卫星公司
制造商所在国:
英国
使用方式:
暂无
卫星简介
OneWeb卫星网络由648颗重约125公斤的微型卫星组成,运行在1200公里的轨道上。 每颗卫星都能够提供至少每秒8千兆位的吞吐量,以使用其高吞吐量的Ku频段有效载荷为家庭和移动平台提供互联网接入。该卫星仍在工作。
2D轨道图
3D轨道图
轨道高度分析图
轨道倾角分析图
轨道综合分析图
查看轨道综合分析图